Location: Coed Ely
(51.5661°N, 3.4150°W)
Time: 19:39:04
(UTC+00:00)

ATLAS 2AS CENTAUR R/B - Pass Details

Date: 28 January 2021
Orbit: 947 x 1265 km, 63.7° (Epoch: 13 February)

Event Time Altitude Azimuth Distance (km) Brightness Sun altitude
Rises 19:36:40 0° 298° (WNW) 4,205 6.8 -24.8°
Reaches altitude 10° 19:39:50 10° 308° (NW) 3,212 5.9 -25.3°
Maximum altitude 19:46:51 35° 12° (NNE) 1,820 3.8 -26.4°
Enters shadow 19:48:21 33° 35° (NE) 1,889 3.7 -26.6°
